Overview Statistics Trail Chart Weather Telemetry Raw packets
 

This is the latest recevied weather packets stored in our database for station/object SV1JSO-13. If no packets are shown the sender has not sent any weather packets the latest 10 day(s).

<< 19 20 21 22 23 24 25 >>
Time Temp. Humidity Pressure Rain* Wind** Luminosity Snow
1788525901 31.67° C 33% 1007.8 hPa 0 mm - 581 W/m² -
1788525600 31.67° C 33% 1007.7 hPa 0 mm - 592 W/m² -
1788525300 31.67° C 33% 1008 hPa 0 mm - 605 W/m² -
1788525001 31.67° C 32% 1007.7 hPa 0 mm - 626 W/m² -
1788524701 31.67° C 32% 1008 hPa 0 mm - 634 W/m² -
1788524401 31.67° C 32% 1008 hPa 0 mm - 644 W/m² -
1788524101 31.67° C 32% 1008 hPa 0 mm - 645 W/m² -
1788523801 31.67° C 31% 1008 hPa 0 mm - 652 W/m² -
1788523501 31.67° C 32% 1007.9 hPa 0 mm - 659 W/m² -
1788523201 31.67° C 33% 1008 hPa 0 mm - 669 W/m² -
1788522900 31.67° C 33% 1008 hPa 0 mm - 693 W/m² -
1788522601 31.11° C 33% 1007.9 hPa 0 mm - 682 W/m² -
1788522301 31.11° C 34% 1007.9 hPa 0 mm - 698 W/m² -
1788522001 31.11° C 34% 1008.1 hPa 0 mm - 713 W/m² -
1788521701 31.67° C 34% 1008.1 hPa 0 mm - 711 W/m² -
1788521401 31.67° C 33% 1008.1 hPa 0 mm - 718 W/m² -
1788521101 31.11° C 34% 1008.1 hPa 0 mm - 717 W/m² -
1788520801 31.11° C 33% 1008 hPa 0 mm - 722 W/m² -
1788520501 31.67° C 33% 1008.1 hPa 0 mm - 722 W/m² -
1788520201 31.67° C 34% 1008.2 hPa 0 mm - 721 W/m² -
1788519901 31.67° C 35% 1008.1 hPa 0 mm - 731 W/m² -
1788519600 31.11° C 35% 1008.3 hPa 0 mm - 733 W/m² -
1788519300 31.11° C 35% 1008.1 hPa 0 mm - 752 W/m² -
1788519001 31.11° C 37% 1008 hPa 0 mm - 167 W/m² -
1788518701 31.11° C 37% 1008.2 hPa 0 mm - 754 W/m² -

* Rain latest hour (hover to see other rain measurements)
** Current wind speed in m/s (hover to see current wind gust speed)